Temp
62 62 62 62 61 61 61 61 61 61 61 61 60 60 60 60 60 61 61 61 60 60 62 62 62 63 58 60 69 85 80 80 80 80 78 77 75 76 72 77 80 79 83 87 88 82 79
62 62 61 61 61 61 61 61 61 61 60 60 60 60 60 60 60 60 61 60 59 60 62 63 63 64 57 60 89 85 83 80 83 80 77 79 79 83 79 79 77 84 86 87 87 81 77
61 61 61 61 61 60 60 60 60 60 60 59 59 59 59 59 60 60 60 59 59 60 63 66 65 66 66 68 91 89 87 80 81 82 77 83 85 80 81 77 85 83 77 82 84 79 79
61 61 61 61 60 60 60 60 60 59 59 59 59 59 59 59 59 59 58 58 59 61 64 65 66 66 62 87 86 90 89 87 87 85 84 86 88 82 79 83 82 75 72 64 80 83 84
61 61 61 61 60 60 59 59 59 59 59 59 59 59 59 59 58 58 57 57 60 62 65 66 61 61 66 84 83 87 87 86 84 84 84 91 86 77 78 69 63 67 59 66 73 85 84
61 61 61 61 60 59 59 59 59 59 58 58 58 58 58 58 57 57 56 58 65 63 65 73 74 62 74 79 84 88 88 90 84 81 80 78 74 69 66 59 52 58 61 66 69 79 84
61 61 61 60 60 59 59 59 59 58 58 58 58 58 57 57 57 56 55 65 62 59 65 66 67 73 83 85 88 84 88 85 84 76 65 73 61 58 64 68 71 71 69 68 75 82 77
61 61 60 60 59 59 59 59 58 58 58 58 58 57 57 57 56 56 53 61 70 71 62 78 80 81 84 83 79 84 88 75 74 66 70 65 60 70 76 75 72 71 68 67 75 82 73
60 60 59 59 59 59 58 58 58 58 58 58 58 57 57 56 55 58 67 72 81 77 60 73 80 79 78 76 77 77 79 78 72 67 68 62 69 78 75 72 70 69 64 67 68 77 74
60 60 59 59 59 58 58 58 58 58 57 57 57 57 57 55 56 70 72 77 81 79 51 66 70 76 79 77 71 87 85 77 73 67 70 67 75 75 72 70 71 58 74 76 75 67 56
60 59 59 59 58 58 58 58 58 58 57 57 57 57 55 53 56 64 76 81 78 71 41 71 72 82 76 70 73 75 85 76 68 70 67 65 71 70 70 72 75 68 76 73 72 64 57
59 59 59 59 58 58 58 57 57 57 57 57 57 56 55 64 59 68 79 80 72 50 46 66 74 70 67 70 74 78 77 76 77 69 70 69 78 73 72 79 78 79 72 69 65 59 50
59 59 59 58 58 58 58 57 57 57 57 56 55 54 52 65 66 79 81 70 48 44 70 64 64 68 67 67 70 68 69 63 57 48 50 65 68 74 78 68 74 71 55 46 44 47 48
59 59 59 58 58 58 58 58 57 57 56 55 54 52 60 71 76 78 72 57 45 62 62 70 69 66 61 68 65 69 63 59 66 63 53 50 52 66 74 68 62 62 58 48 40 43 49
59 59 58 58 58 58 58 57 57 57 56 55 53 66 67 75 77 77 61 49 50 58 64 63 65 57 59 66 62 64 58 59 64 62 49 48 52 70 74 75 71 62 55 62 53 59 51
59 58 58 58 58 57 57 57 57 57 56 55 54 63 70 82 81 71 56 55 58 65 66 65 55 61 55 61 57 58 58 65 64 66 62 54 44 61 69 72 72 66 66 52 52 42 40
58 58 58 58 58 57 58 57 57 56 55 54 59 61 75 82 78 63 55 57 64 69 68 61 57 56 57 56 58 56 58 62 67 64 62 53 48 51 61 57 58 60 56 54 53 50 44
58 58 58 58 57 57 58 57 56 55 53 59 64 59 79 80 59 62 56 61 57 65 68 64 63 61 57 58 54 55 57 59 67 63 54 56 47 41 50 63 67 64 57 54 45 47 50
58 58 58 58 58 58 58 57 56 54 54 53 57 66 81 79 55 57 62 64 63 62 60 60 60 61 60 54 48 56 58 67 67 62 50 54 44 37 43 51 58 55 60 58 56 52 50
58 58 59 58 58 58 58 57 56 55 55 54 59 58 66 69 66 59 56 58 57 64 60 62 60 60 56 52 54 50 56 65 66 63 63 58 44 39 35 44 52 50 55 58 53 44 47
58 58 58 59 58 58 58 57 56 55 55 55 62 60 63 52 56 58 57 56 53 51 59 58 56 55 51 44 49 49 55 56 61 61 57 50 39 44 48 53 55 53 54 55 51 53 44
58 58 58 59 59 58 58 57 57 56 55 62 59 58 62 58 60 57 54 52 51 51 53 51 50 53 53 44 48 45 49 48 48 53 50 50 39 44 43 51 53 51 55 56 56 57 57
57 58 58 58 58 58 58 58 57 56 57 64 67 68 61 56 57 52 51 53 53 53 56 58 54 50 50 51 54 54 54 53 53 48 46 46 41 37 34 44 44 40 50 54 55 59 58
57 58 58 58 58 58 58 59 58 57 56 60 64 63 58 52 56 54 57 57 55 55 51 57 56 49 55 61 59 57 55 53 54 53 52 44 43 38 33 35 28 45 56 58 56 59 55
57 57 57 58 58 59 59 59 59 58 57 60 66 62 59 53 59 60 59 56 57 54 53 57 58 57 58 57 44 40 42 43 46 51 50 49 44 34 31 31 41 48 54 50 49 48 55
57 57 57 57 58 59 59 60 60 59 57 62 65 65 61 54 55 64 58 58 51 50 54 56 60 60 59 50 41 34 33 37 38 43 50 48 47 39 34 27 27 41 55 59 58 40 53
57 57 57 57 58 59 59 60 60 60 58 58 63 65 61 56 63 62 55 54 58 54 49 53 56 52 56 43 36 34 33 37 32 34 36 36 37 34 34 32 39 50 56 59 39 37 52
56 56 56 57 58 59 59 60 60 60 59 58 62 66 61 57 61 67 68 58 58 55 47 53 50 49 45 38 37 34 34 36 36 39 37 36 34 32 34 30 28 49 51 40 44 47 49
56 56 56 57 57 58 59 60 60 59 59 58 61 68 67 59 61 70 71 71 67 64 56 55 50 48 45 40 39 37 33 35 35 30 41 33 35 32 36 37 43 46 45 49 49 45 48
MSLP
1023.02 1022.64 1022.26 1021.84 1021.39 1020.94 1020.48 1020.04 1019.55 1019.00 1018.47 1017.88 1017.37 1016.80 1016.16 1015.54 1014.98 1014.47 1013.83 1013.39 1012.90 1012.40 1011.96 1011.79 1011.80 1011.84 1011.99 1010.48 1007.10 1005.53 1005.97 1006.41 1006.88 1007.10 1007.10 1007.08 1006.51 1005.96 1005.55 1005.03 1004.54 1004.05 1003.51 1003.30 1003.52 1004.72 1005.69
1022.94 1022.51 1022.15 1021.80 1021.42 1020.96 1020.46 1019.99 1019.50 1019.02 1018.39 1017.86 1017.19 1016.66 1016.03 1015.34 1014.68 1014.10 1013.62 1013.10 1012.66 1012.17 1011.79 1011.63 1011.62 1011.74 1011.45 1008.35 1004.62 1005.04 1005.64 1006.32 1006.12 1006.51 1006.60 1006.57 1005.63 1004.88 1004.73 1004.38 1004.04 1003.22 1002.74 1002.41 1002.58 1003.77 1005.60
1022.93 1022.58 1022.20 1021.81 1021.40 1020.88 1020.40 1019.95 1019.50 1018.96 1018.38 1017.70 1017.06 1016.45 1015.80 1015.11 1014.38 1013.72 1013.26 1012.84 1012.36 1011.91 1011.59 1011.35 1011.36 1011.40 1009.87 1006.66 1004.20 1004.43 1004.77 1005.32 1005.62 1005.78 1006.01 1005.68 1005.15 1005.22 1004.35 1004.08 1003.34 1003.10 1002.74 1002.26 1002.21 1003.15 1004.20
1022.94 1022.48 1022.02 1021.64 1021.22 1020.79 1020.33 1019.84 1019.34 1018.80 1018.27 1017.63 1016.88 1016.18 1015.56 1014.87 1014.10 1013.41 1012.75 1012.30 1011.88 1011.55 1011.34 1011.32 1011.30 1010.89 1008.05 1004.61 1003.99 1004.02 1004.11 1004.33 1004.86 1005.12 1005.56 1005.14 1004.79 1004.92 1004.35 1004.06 1003.60 1003.49 1003.09 1002.74 1002.23 1002.25 1003.05
1022.91 1022.46 1022.05 1021.61 1021.18 1020.74 1020.28 1019.80 1019.22 1018.67 1018.12 1017.45 1016.73 1016.01 1015.29 1014.42 1013.75 1013.14 1012.32 1011.49 1010.92 1010.87 1010.93 1011.10 1011.16 1010.20 1006.55 1004.10 1004.04 1003.78 1003.58 1003.77 1004.50 1004.90 1005.25 1005.06 1004.85 1004.77 1004.51 1004.58 1004.60 1003.98 1003.81 1002.94 1002.35 1001.68 1002.33
1022.84 1022.48 1022.07 1021.68 1021.25 1020.78 1020.24 1019.78 1019.20 1018.57 1017.94 1017.27 1016.45 1015.82 1015.14 1014.17 1013.26 1012.92 1011.91 1010.30 1009.99 1010.24 1010.55 1010.34 1009.74 1009.15 1005.80 1003.88 1003.38 1003.29 1003.32 1003.32 1003.97 1004.75 1005.32 1005.36 1005.09 1004.83 1004.88 1005.14 1005.01 1004.66 1003.70 1002.64 1002.04 1001.36 1001.57
1022.68 1022.35 1021.98 1021.57 1021.17 1020.67 1020.16 1019.68 1019.17 1018.51 1017.84 1017.10 1016.21 1015.52 1014.80 1013.86 1012.92 1012.81 1011.88 1010.03 1010.13 1010.05 1009.12 1007.69 1006.84 1005.41 1003.74 1003.41 1003.35 1003.39 1003.31 1003.43 1003.63 1004.60 1005.14 1004.86 1005.16 1004.77 1004.94 1004.97 1004.88 1004.40 1003.69 1002.90 1001.70 1000.80 1001.30
1022.58 1022.33 1021.94 1021.49 1021.05 1020.58 1020.02 1019.53 1018.96 1018.32 1017.70 1016.82 1016.04 1015.28 1014.53 1013.47 1012.48 1011.93 1012.26 1010.50 1008.38 1008.02 1007.22 1005.90 1005.08 1004.47 1003.65 1003.38 1003.16 1002.90 1003.20 1003.80 1003.85 1004.42 1004.85 1005.10 1004.85 1004.66 1004.59 1004.42 1004.28 1003.98 1003.43 1002.56 1001.50 1000.72 1001.68
1022.55 1022.29 1021.89 1021.49 1021.07 1020.52 1020.03 1019.49 1018.87 1018.20 1017.41 1016.64 1015.83 1015.05 1014.30 1013.20 1012.06 1010.89 1010.25 1008.66 1007.42 1007.15 1006.93 1004.80 1003.81 1003.62 1003.29 1003.51 1002.98 1002.85 1003.27 1003.43 1003.93 1004.40 1004.62 1004.74 1004.20 1003.90 1003.94 1003.76 1003.56 1003.25 1003.00 1002.40 1002.04 1001.24 1002.72
1022.57 1022.21 1021.81 1021.42 1020.99 1020.49 1019.89 1019.28 1018.62 1017.85 1017.12 1016.30 1015.63 1014.83 1014.11 1013.08 1011.96 1010.24 1008.69 1007.35 1006.99 1006.77 1006.75 1004.17 1003.42 1003.10 1003.10 1003.38 1003.23 1002.84 1003.18 1003.68 1003.62 1004.00 1004.18 1004.14 1003.80 1003.54 1003.47 1003.22 1003.00 1002.72 1002.29 1002.14 1002.07 1002.38 1003.19
1022.59 1022.25 1021.87 1021.42 1020.88 1020.39 1019.78 1019.10 1018.33 1017.58 1016.85 1016.09 1015.28 1014.62 1013.82 1014.06 1012.59 1010.47 1008.15 1007.28 1007.06 1007.02 1006.02 1003.96 1003.45 1003.38 1002.99 1003.56 1003.49 1003.43 1003.60 1003.94 1004.03 1003.92 1003.95 1003.56 1003.14 1002.78 1002.52 1002.32 1002.24 1002.40 1002.18 1002.40 1002.74 1002.92 1003.49
1022.67 1022.32 1021.94 1021.45 1020.88 1020.24 1019.68 1018.95 1018.12 1017.36 1016.53 1015.71 1014.88 1014.36 1013.89 1012.09 1012.21 1009.47 1007.94 1007.40 1007.26 1007.34 1004.80 1003.65 1003.54 1003.50 1003.64 1003.67 1003.48 1003.74 1003.94 1004.30 1004.20 1004.25 1003.98 1003.57 1002.65 1002.49 1001.97 1001.59 1001.68 1002.03 1002.58 1002.94 1003.37 1004.05 1004.23
1022.71 1022.37 1021.95 1021.40 1020.80 1020.16 1019.49 1018.70 1017.88 1017.13 1016.29 1015.24 1014.38 1013.75 1014.06 1012.58 1010.39 1008.46 1007.90 1007.82 1007.84 1006.39 1003.70 1004.12 1003.80 1003.65 1003.60 1003.63 1003.57 1003.86 1004.10 1004.44 1004.65 1004.86 1004.69 1004.20 1003.26 1002.45 1002.16 1002.02 1001.70 1002.33 1003.31 1004.31 1004.88 1005.12 1004.63
1022.76 1022.32 1021.86 1021.37 1020.78 1020.09 1019.22 1018.46 1017.67 1016.86 1016.03 1015.01 1013.74 1012.99 1011.76 1010.89 1009.38 1008.99 1008.43 1008.50 1007.70 1006.00 1004.97 1004.34 1004.08 1003.97 1003.78 1003.80 1004.01 1004.26 1004.64 1004.80 1004.79 1005.00 1005.48 1005.59 1004.35 1003.11 1002.54 1002.42 1002.47 1002.72 1003.60 1004.79 1005.31 1005.53 1005.26
1022.76 1022.29 1021.80 1021.32 1020.69 1019.94 1019.05 1018.27 1017.45 1016.56 1015.76 1014.88 1013.34 1011.62 1010.90 1009.20 1009.00 1008.93 1009.06 1008.42 1008.48 1007.44 1007.09 1006.14 1005.26 1004.91 1004.66 1004.38 1004.71 1005.01 1005.42 1005.68 1005.84 1006.20 1007.07 1007.06 1005.60 1004.37 1003.60 1002.71 1002.76 1003.21 1003.60 1004.18 1005.16 1005.44 1005.52
1022.88 1022.32 1021.72 1021.17 1020.57 1019.84 1018.96 1018.12 1017.36 1016.40 1015.23 1014.66 1013.93 1011.74 1009.37 1007.88 1007.86 1008.37 1008.89 1008.47 1008.56 1008.69 1008.04 1007.18 1006.58 1005.96 1006.01 1005.91 1005.85 1005.96 1006.08 1006.50 1006.96 1007.52 1007.83 1008.62 1008.17 1006.42 1005.30 1004.04 1002.86 1003.25 1004.05 1004.90 1005.30 1005.95 1005.87
1022.84 1022.37 1021.72 1021.05 1020.41 1019.80 1018.95 1018.04 1017.33 1016.42 1014.98 1013.51 1013.24 1011.07 1008.24 1007.55 1007.74 1008.50 1008.99 1009.01 1008.90 1008.77 1008.56 1008.28 1008.11 1007.81 1007.92 1007.77 1007.52 1007.25 1007.39 1008.13 1008.17 1008.70 1008.82 1009.47 1009.88 1008.38 1007.52 1006.33 1006.07 1005.45 1005.20 1005.78 1006.39 1006.69 1006.24
1022.95 1022.43 1021.79 1021.08 1020.34 1019.72 1018.98 1018.13 1017.50 1016.66 1015.24 1013.34 1012.77 1010.31 1007.90 1007.32 1008.20 1008.23 1009.41 1009.79 1009.80 1009.59 1009.34 1009.21 1009.06 1009.11 1009.26 1009.30 1009.15 1008.90 1008.87 1009.11 1009.59 1009.98 1010.55 1010.93 1011.25 1011.13 1009.80 1008.28 1007.59 1007.18 1007.04 1007.12 1007.49 1007.25 1006.45
1022.87 1022.34 1021.74 1021.05 1020.40 1019.66 1019.00 1018.22 1017.58 1017.25 1016.84 1016.08 1013.53 1010.04 1008.31 1007.47 1009.10 1009.56 1009.81 1010.43 1011.11 1011.01 1011.10 1010.97 1010.61 1010.91 1011.02 1010.93 1010.85 1010.52 1010.31 1010.26 1010.68 1011.20 1012.36 1012.68 1012.68 1012.52 1011.13 1009.43 1008.54 1008.64 1008.04 1007.89 1007.76 1007.22 1007.01
1022.85 1022.22 1021.66 1021.09 1020.41 1019.64 1018.98 1018.28 1017.54 1017.08 1017.03 1016.59 1013.86 1011.24 1010.25 1010.39 1010.96 1011.18 1011.46 1011.70 1012.12 1012.44 1012.73 1012.48 1012.32 1012.10 1012.26 1012.30 1012.06 1012.02 1011.78 1011.27 1011.55 1012.07 1012.87 1013.35 1014.21 1014.49 1013.90 1012.58 1012.18 1010.98 1010.11 1009.31 1009.36 1008.40 1007.44
1022.86 1022.31 1021.76 1021.18 1020.48 1019.76 1019.12 1018.42 1017.62 1016.70 1016.09 1016.17 1013.72 1012.94 1012.60 1012.82 1012.54 1012.76 1013.09 1013.61 1013.72 1014.08 1014.02 1013.79 1013.36 1014.09 1014.39 1014.32 1013.89 1013.60 1013.31 1013.13 1012.82 1013.39 1013.65 1014.47 1015.02 1015.22 1014.74 1013.89 1013.06 1012.18 1011.24 1010.44 1010.06 1009.24 1008.41
1022.90 1022.34 1021.81 1021.22 1020.70 1020.00 1019.32 1018.62 1017.84 1016.87 1015.50 1014.83 1013.94 1013.78 1013.29 1013.26 1013.38 1013.77 1014.36 1014.70 1015.05 1015.47 1015.26 1015.20 1015.37 1015.59 1015.62 1015.78 1015.94 1015.59 1015.40 1015.22 1014.76 1014.45 1014.74 1015.33 1015.81 1015.88 1015.54 1014.81 1013.98 1012.80 1011.92 1011.09 1010.36 1009.39 1008.25
1022.88 1022.40 1021.87 1021.33 1020.85 1020.25 1019.55 1018.95 1018.22 1017.50 1015.86 1015.29 1014.67 1013.92 1013.60 1013.99 1014.34 1014.81 1015.31 1015.52 1015.75 1016.13 1015.95 1015.91 1016.24 1016.54 1016.34 1016.70 1016.62 1016.43 1016.33 1016.07 1015.80 1015.60 1015.49 1015.82 1016.46 1017.02 1016.73 1016.25 1015.44 1013.84 1012.52 1011.52 1010.57 1009.84 1009.38
1022.86 1022.48 1021.90 1021.49 1020.94 1020.41 1019.78 1019.21 1018.66 1018.35 1018.28 1017.26 1015.85 1015.19 1014.31 1014.43 1014.66 1015.08 1015.45 1015.75 1016.04 1016.38 1016.42 1016.10 1016.40 1016.75 1017.08 1017.04 1016.76 1016.33 1016.09 1016.13 1015.91 1015.63 1015.55 1016.08 1016.66 1017.26 1017.44 1017.38 1016.22 1013.71 1012.74 1012.02 1011.16 1010.53 1010.71
1022.79 1022.45 1021.96 1021.65 1021.09 1020.64 1020.09 1019.53 1019.00 1018.71 1018.26 1017.43 1016.47 1016.09 1015.28 1014.97 1014.95 1014.95 1015.18 1015.70 1015.78 1016.24 1016.61 1016.28 1016.57 1016.91 1017.09 1017.02 1017.18 1016.96 1016.41 1016.76 1016.16 1015.93 1015.83 1016.08 1016.88 1017.45 1018.09 1017.71 1016.02 1013.99 1012.98 1012.69 1012.44 1012.33 1012.15
1022.75 1022.43 1021.98 1021.64 1021.28 1020.88 1020.29 1019.92 1019.44 1019.12 1018.66 1017.64 1017.16 1016.64 1016.17 1015.76 1015.62 1015.06 1015.13 1015.60 1015.94 1016.23 1016.21 1016.62 1016.70 1016.86 1017.28 1017.52 1018.16 1018.64 1018.50 1018.70 1017.74 1016.86 1015.94 1016.81 1017.12 1017.91 1018.56 1018.41 1016.55 1014.63 1013.51 1013.31 1013.14 1013.86 1014.08
1022.76 1022.40 1022.00 1021.65 1021.37 1021.09 1020.54 1020.20 1019.71 1019.46 1019.29 1018.93 1017.72 1017.07 1016.62 1016.12 1015.63 1015.33 1015.44 1015.46 1015.80 1016.14 1016.43 1016.54 1016.84 1017.34 1017.83 1018.52 1019.23 1019.79 1020.11 1020.45 1019.74 1018.90 1018.55 1018.46 1018.30 1018.32 1018.32 1018.43 1016.91 1015.54 1014.37 1013.92 1014.86 1016.10 1015.42
1022.69 1022.27 1021.99 1021.66 1021.38 1021.10 1020.69 1020.51 1020.02 1019.90 1019.64 1019.26 1018.18 1017.30 1017.33 1016.73 1015.92 1015.37 1015.19 1015.50 1015.60 1015.90 1016.42 1016.74 1017.37 1017.92 1018.72 1019.47 1020.38 1020.72 1020.91 1021.25 1021.12 1020.56 1020.58 1020.43 1020.34 1019.48 1018.87 1018.85 1018.34 1017.26 1015.92 1016.44 1017.36 1016.89 1016.61
1022.61 1022.15 1021.86 1021.60 1021.43 1021.20 1020.85 1020.56 1020.24 1020.09 1020.01 1019.58 1018.30 1017.21 1017.08 1017.09 1015.90 1015.36 1014.90 1015.03 1015.40 1015.64 1015.99 1016.61 1017.55 1018.42 1019.64 1020.23 1020.85 1021.31 1021.76 1021.96 1022.01 1021.77 1021.52 1021.55 1022.24 1022.01 1021.04 1019.76 1019.62 1019.34 1018.86 1018.07 1018.22 1018.08 1017.20
Wind_Speed
17 17 18 18 17 17 18 19 20 20 21 22 23 23 23 23 23 22 22 19 19 18 16 8 6 4 3 4 10 10 14 12 9 6 12 13 10 13 15 11 14 17 17 14 9 7 8
15 15 16 17 18 18 19 20 20 21 21 22 22 22 22 22 23 23 21 20 18 17 12 6 4 4 3 5 9 15 14 10 10 12 11 13 10 11 10 14 14 15 16 14 13 8 12
15 15 16 17 17 17 18 19 20 21 21 23 23 23 22 23 25 24 22 20 19 15 12 6 6 6 7 14 5 10 13 10 11 12 10 15 17 15 8 10 13 14 9 14 6 11 10
14 15 14 15 15 16 17 18 19 20 21 22 23 24 24 24 25 24 23 21 18 15 10 3 3 5 8 8 3 6 9 11 13 10 12 13 14 16 8 9 13 11 8 5 10 8 10
14 14 15 15 15 16 17 18 19 19 20 21 23 24 24 25 25 23 24 24 20 13 8 4 4 5 8 2 4 10 5 8 13 9 11 16 15 10 9 4 7 7 8 8 12 16 7
14 14 15 17 17 17 17 18 19 20 20 21 23 24 24 26 26 23 25 25 6 4 7 8 8 6 7 5 4 1 6 8 11 9 10 13 9 8 5 2 8 8 8 8 10 12 14
14 15 16 16 17 17 18 18 20 21 22 22 23 24 24 26 27 21 14 6 1 1 5 9 2 7 4 6 4 7 6 5 8 8 9 8 4 8 9 10 12 15 16 15 12 14 8
13 15 16 16 16 16 17 19 19 20 22 24 24 24 25 26 27 24 5 4 5 5 8 12 17 14 2 5 5 5 7 6 7 6 6 7 12 9 11 14 13 18 16 16 15 13 7
12 13 14 15 16 17 18 19 20 21 22 24 24 24 24 26 29 10 6 9 4 7 4 9 10 8 7 4 7 8 5 9 8 8 9 10 11 17 14 15 15 15 10 11 12 16 12
12 12 13 15 16 16 18 19 20 21 23 24 24 25 24 27 6 7 6 2 7 3 3 5 7 1 4 2 5 8 2 4 4 9 11 10 16 16 16 17 13 9 9 11 13 8 3
12 13 14 16 16 17 18 19 20 21 23 24 25 24 24 10 8 6 6 8 4 2 2 8 6 2 2 6 4 4 6 5 8 8 5 8 13 12 16 13 14 10 10 9 8 7 4
13 14 15 17 18 18 20 20 21 22 23 24 25 23 23 2 4 11 11 8 4 2 4 5 5 6 4 6 8 7 5 4 6 6 9 10 10 6 7 14 10 7 9 10 7 3 6
15 16 17 17 19 22 22 21 21 22 23 25 25 24 14 7 5 10 9 5 2 4 10 6 8 5 9 7 5 2 5 7 4 2 4 7 12 8 10 8 8 7 2 4 4 4 8
15 16 17 21 21 23 22 22 22 22 23 25 28 26 7 8 8 12 5 3 4 14 13 8 5 3 2 10 3 7 2 5 6 8 1 3 8 6 2 7 5 6 7 7 7 6 6
16 16 17 21 22 23 22 22 23 24 24 24 28 3 4 7 13 8 2 3 6 11 14 12 10 3 5 4 3 5 1 6 6 12 6 7 7 19 14 10 8 7 6 6 6 12 5
17 17 18 20 22 21 21 21 23 26 28 22 5 4 6 4 2 2 2 7 8 11 8 8 6 7 8 7 2 6 7 10 7 9 7 6 7 8 16 12 9 9 5 4 3 7 7
17 18 19 19 21 22 22 21 23 26 29 26 3 3 2 1 2 2 4 6 7 11 9 9 8 8 10 9 10 8 6 9 12 11 5 5 2 11 9 5 12 12 6 3 1 2 5
18 19 19 19 20 21 22 21 22 24 29 8 5 1 5 2 2 2 6 6 9 14 13 8 2 7 8 11 8 7 8 8 10 9 6 7 1 5 14 19 18 14 9 5 3 9 4
18 19 19 20 19 20 22 21 20 18 15 7 6 1 8 13 6 6 5 12 13 10 14 12 11 12 10 6 5 8 9 9 12 8 4 8 5 5 11 7 4 8 13 10 9 2 11
18 19 21 19 19 20 21 21 21 19 12 5 4 4 5 9 9 12 8 11 11 16 12 8 6 7 9 8 7 2 6 4 7 7 7 4 1 4 6 12 11 14 19 19 11 3 6
18 19 19 19 19 19 21 22 22 24 21 3 2 6 7 5 6 9 11 10 12 9 9 13 8 16 13 7 8 8 12 14 13 9 5 4 3 6 10 15 17 17 18 19 18 15 4
17 17 17 19 18 19 19 21 22 25 31 2 4 3 4 3 8 13 12 6 10 9 8 9 9 12 8 3 9 10 10 7 5 7 3 2 4 7 11 14 16 18 17 17 19 19 16
16 17 17 17 18 18 18 19 21 23 23 4 5 5 1 3 9 6 4 5 6 3 4 3 6 5 8 13 11 8 9 11 11 7 5 4 1 4 8 9 14 15 12 15 17 17 16
15 16 16 17 17 16 16 17 18 18 14 3 3 4 3 4 7 5 7 5 4 4 4 6 5 4 6 9 9 10 10 11 12 11 7 6 5 2 5 2 4 11 8 16 18 18 16
14 14 15 16 16 14 15 16 17 18 18 4 5 5 5 4 7 5 11 9 4 7 3 6 7 3 5 9 3 6 2 2 4 7 9 5 3 3 4 5 11 14 13 2 7 9 17
13 13 13 14 14 14 13 14 16 17 19 5 5 5 3 3 7 10 7 6 2 5 2 2 4 4 4 2 3 2 3 4 4 8 5 4 6 8 3 3 7 2 8 9 3 7 13
11 12 12 12 12 12 12 13 14 15 16 5 3 5 3 3 5 6 5 4 3 3 3 5 4 5 5 4 3 2 2 2 4 5 7 5 5 5 6 6 5 9 7 3 6 4 13
10 10 10 11 11 10 10 11 12 13 13 7 4 3 3 4 4 7 3 3 4 5 3 5 4 5 4 3 2 2 2 2 3 5 4 4 5 3 1 5 6 17 5 5 8 8 9
10 9 9 9 10 10 9 9 9 10 10 8 3 2 1 3 4 8 7 5 1 4 1 3 3 5 2 1 1 1 2 3 3 3 6 1 2 4 4 2 7 11 10 10 11 12 13
Wind_Direction
358 356 355 353 351 349 347 347 345 344 341 339 338 337 335 333 333 331 329 329 324 322 321 306 281 262 264 223 254 158 173 170 169 179 209 222 247 235 219 230 245 246 247 234 220 157 109
353 352 350 348 347 346 344 344 344 342 339 337 335 334 333 331 330 330 329 326 322 320 320 309 255 179 246 254 130 154 169 166 200 188 211 226 243 233 235 243 252 260 258 255 180 166 138
348 349 348 348 345 342 339 340 340 339 338 335 332 332 332 329 328 327 327 323 317 314 309 326 210 221 267 253 328 172 175 178 205 188 217 229 248 279 252 278 261 275 304 306 223 163 146
343 343 343 342 341 338 336 337 337 335 335 333 330 330 330 328 326 325 323 317 307 300 291 288 174 241 256 209 342 247 223 206 180 189 223 245 247 260 264 278 287 290 299 273 278 204 164
339 338 340 342 341 338 335 335 335 334 333 331 329 329 329 326 323 326 321 308 297 277 242 209 225 226 271 146 216 212 259 215 164 196 211 249 266 258 284 283 315 287 260 250 253 261 211
336 339 340 342 341 338 337 335 334 334 332 330 328 328 327 324 321 327 321 296 262 313 210 217 259 277 264 239 99 232 234 265 158 162 209 234 249 230 250 211 230 256 259 232 247 254 241
338 338 339 341 340 337 336 334 334 333 331 328 326 327 326 321 319 327 337 339 120 161 241 227 218 235 154 103 140 214 176 282 175 178 204 217 241 225 226 239 256 271 281 289 280 250 221
338 341 337 338 337 337 334 333 333 331 328 325 325 326 324 321 317 317 271 249 45 284 300 269 257 263 287 358 232 150 145 210 203 196 215 240 227 236 231 239 234 250 264 279 289 284 96
342 341 337 337 336 335 336 334 332 329 327 324 324 323 324 321 316 296 227 284 288 290 266 282 218 222 233 199 271 153 191 224 184 217 219 223 235 223 237 249 249 246 240 271 273 303 74
346 344 339 338 337 336 333 332 330 329 326 322 322 322 326 329 312 326 284 329 359 26 293 224 170 187 112 247 284 105 36 355 252 230 220 229 239 253 228 236 252 257 263 263 269 305 276
357 349 344 340 338 334 332 331 327 327 325 320 320 322 324 319 300 302 351 324 345 15 267 149 109 99 227 197 142 152 71 315 271 281 259 240 228 245 249 235 225 255 280 287 298 289 300
357 350 347 342 335 337 339 330 327 326 322 319 318 322 333 13 202 250 287 322 327 266 216 128 126 186 203 219 255 143 179 226 300 299 314 298 308 283 265 256 261 231 258 289 310 3 300
356 353 346 341 339 339 336 328 329 326 322 319 317 316 317 297 261 323 323 317 285 254 144 155 166 171 202 174 194 141 217 192 219 189 274 290 267 275 294 318 260 262 226 327 325 291 247
355 350 347 345 343 339 332 332 330 326 325 323 318 314 229 232 273 300 324 308 299 24 24 36 45 24 291 132 181 161 325 321 252 242 9 290 313 211 312 240 264 250 185 170 221 239 261
352 349 346 344 342 338 330 333 332 329 328 325 314 256 239 243 234 254 320 293 42 12 356 351 322 190 268 174 97 56 43 277 19 45 72 12 299 339 342 327 207 273 278 227 244 278 296
347 346 343 343 340 332 331 337 335 332 328 334 308 279 256 329 151 265 260 58 83 47 337 338 336 1 4 30 169 171 196 26 69 66 61 21 320 329 349 332 336 174 255 351 298 249 265
346 344 343 343 339 334 334 341 340 336 331 326 239 270 285 37 286 280 35 39 38 55 14 20 3 3 352 2 359 2 40 30 38 33 44 45 90 306 350 330 349 341 331 327 355 257 247
344 344 343 342 339 335 335 341 344 339 335 5 336 59 294 217 318 214 72 14 15 8 18 12 342 9 17 8 3 357 3 68 51 36 13 14 4 312 294 301 307 311 313 315 169 280 258
344 345 343 342 339 338 335 339 344 341 3 320 316 276 39 12 18 18 72 87 61 19 29 8 12 20 8 354 2 19 8 28 65 52 35 358 337 345 321 313 330 345 335 317 299 279 270
344 345 344 343 340 338 337 339 339 336 339 312 299 15 21 26 6 29 357 26 70 45 28 0 359 352 9 3 352 351 331 344 81 98 106 90 256 256 265 295 317 310 318 323 327 302 281
346 345 341 343 337 343 341 341 342 335 331 271 230 64 51 19 354 59 47 30 40 20 348 31 38 19 17 360 340 354 2 358 357 58 34 20 240 275 284 286 294 290 295 305 307 306 287
343 345 343 343 341 345 344 344 346 341 332 253 53 14 100 48 2 60 15 43 36 15 360 14 11 0 340 328 360 345 349 345 312 348 349 357 291 310 310 311 298 292 290 280 286 296 294
343 345 345 341 347 345 347 347 352 354 346 2 355 333 256 54 65 57 48 47 45 60 3 71 27 352 340 10 339 319 310 299 287 281 275 285 275 338 281 346 332 293 280 286 280 282 292
343 345 347 346 349 345 349 349 355 356 5 273 6 301 10 45 65 90 60 34 9 39 347 332 73 5 7 327 307 297 268 255 263 265 260 266 252 195 257 264 269 255 242 268 280 281 6
343 346 344 344 348 347 351 348 355 355 356 328 8 355 345 61 33 30 55 20 72 135 235 22 17 71 328 308 339 325 72 79 272 290 288 304 294 208 234 253 296 283 269 15 4 349 20
343 345 342 345 347 346 353 352 353 354 360 333 40 338 332 353 32 6 48 81 357 14 5 93 41 41 0 311 73 344 20 339 344 326 37 0 287 247 159 222 228 55 32 19 332 287 5
338 341 341 345 347 345 356 351 352 356 2 341 319 3 296 331 42 32 26 360 48 108 271 92 33 31 9 6 5 9 43 273 342 317 355 315 307 266 234 231 264 347 339 323 226 306 348
330 334 338 343 343 341 350 347 348 355 3 355 295 46 7 315 21 329 59 20 356 11 55 332 87 30 26 48 11 8 16 16 309 347 345 310 322 307 266 203 259 3 8 357 343 339 345
322 326 332 341 339 341 348 339 344 353 352 349 278 162 173 253 300 314 307 144 202 160 241 71 112 73 79 113 59 31 11 0 348 294 357 50 65 295 317 345 37 337 350 20 10 328 326